Wind_Speed
31 30 30 29 29 29 29 30 30 30 30 29 29 29 29 29 30 29 29 28 28 27 28 28 29 29 29 30 30 31 31 31 32 33 33 34 35 35 35 35 35 35 35
33 33 33 33 33 32 32 32 32 32 31 31 31 31 30 31 31 31 30 30 29 30 30 30 31 31 31 31 32 33 33 34 34 34 35 35 36 36 36 36 36 36 36
33 34 34 35 35 33 33 34 34 34 33 33 33 33 33 33 34 33 33 33 32 32 33 33 33 33 33 34 34 35 35 36 36 37 37 37 37 37 37 37 37 37 37
35 35 36 36 35 35 35 35 35 34 35 35 35 35 35 35 36 35 35 35 35 35 35 35 35 35 35 36 36 37 37 38 38 38 39 39 39 39 39 38 38 38 38
36 37 37 37 37 37 37 36 36 35 35 36 36 36 36 36 36 37 37 38 38 37 37 37 37 37 37 37 38 38 39 39 40 40 40 40 40 40 40 39 39 39 39
36 37 38 38 38 38 38 37 36 37 36 37 37 37 37 38 38 38 38 39 39 38 39 39 39 39 39 39 39 40 40 41 41 41 41 41 41 41 41 40 40 40 40
38 38 37 38 39 39 39 38 38 37 37 38 38 38 38 39 39 39 39 39 39 39 40 40 40 40 40 41 41 41 42 42 42 42 42 42 42 42 42 42 42 41 42
39 39 39 39 38 38 39 39 39 37 38 38 38 38 38 39 40 40 40 40 41 41 41 41 41 42 42 42 42 43 43 43 43 42 42 43 42 42 42 43 43 42 42
39 39 40 39 39 40 40 40 39 38 38 38 38 38 38 39 39 40 40 41 41 42 42 42 42 42 43 43 43 43 43 43 43 43 42 43 43 43 43 43 44 44 43
40 40 40 40 40 40 41 41 41 41 40 40 40 40 40 40 40 40 40 41 42 43 43 43 43 44 44 44 44 44 44 44 44 43 43 43 43 44 44 44 45 45 44
39 40 40 41 41 40 41 42 43 43 42 42 41 42 43 43 43 43 42 42 43 43 44 44 44 45 45 45 45 45 45 45 44 44 44 44 45 45 46 45 46 46 45
39 40 40 40 41 41 42 42 43 43 43 42 42 42 43 44 44 44 44 43 43 44 45 45 46 46 46 46 46 46 46 46 45 45 45 45 46 46 46 47 47 47 47
39 40 40 40 40 41 42 43 43 43 44 44 43 43 44 45 45 46 46 45 45 45 45 46 46 47 47 47 47 46 47 46 47 47 47 47 47 47 47 47 48 48 48
39 40 40 40 41 42 43 43 43 44 45 45 45 45 45 46 46 46 47 47 47 47 47 47 48 48 48 48 48 48 48 47 47 47 48 48 48 48 48 49 49 49 49
40 40 41 41 42 42 43 44 43 44 45 45 46 46 46 46 47 47 48 48 49 48 48 48 49 49 50 49 49 49 49 48 48 48 48 49 49 49 50 50 51 51 50
39 40 40 40 41 42 43 43 44 44 44 45 46 47 47 47 48 48 48 49 49 50 49 49 50 49 50 50 50 51 51 51 51 51 51 50 50 51 51 52 52 51 52
38 39 40 41 42 42 42 43 44 45 46 46 47 47 47 48 48 49 49 49 50 50 50 50 50 50 50 50 51 51 51 51 52 52 52 52 52 52 52 52 52 52 52
39 40 41 42 43 43 44 45 45 46 46 46 47 47 48 49 49 49 50 50 50 51 51 50 50 50 50 50 50 50 50 50 51 51 52 51 51 51 51 52 52 52 52
39 40 41 42 43 44 44 45 45 45 45 46 47 48 49 50 50 50 50 50 50 50 50 49 50 49 49 50 50 50 50 51 51 51 51 51 50 50 51 51 51 51 51
40 41 42 42 43 44 45 45 45 46 46 47 48 49 49 50 51 50 50 50 50 49 49 50 50 50 50 50 50 49 50 50 51 51 50 49 49 50 50 50 50 51 51
42 42 43 43 44 45 45 45 46 46 46 47 49 49 50 50 50 51 50 50 49 49 49 49 49 49 49 49 49 49 49 49 49 49 49 49 48 48 48 50 50 50 50
43 43 43 43 43 44 45 45 46 46 46 47 47 48 49 49 49 49 50 50 49 49 48 49 48 48 47 47 47 48 48 47 47 47 48 48 48 48 48 48 49 49 49
42 42 42 42 43 43 44 44 45 45 45 46 47 47 47 48 48 48 48 48 48 48 47 47 47 47 47 46 46 46 46 46 46 46 46 46 46 46 46 46 47 47 47
42 42 42 43 43 43 43 44 44 45 45 45 45 45 45 45 45 45 45 46 46 46 47 46 46 46 46 45 46 45 45 45 44 45 46 45 45 45 45 45 45 46 45
42 42 42 43 42 42 42 43 44 44 44 44 44 43 43 43 43 44 44 44 45 45 45 45 46 46 45 44 44 44 44 43 43 43 45 44 43 43 43 43 43 43 42
43 43 42 42 43 42 43 43 44 44 44 43 43 43 43 42 42 43 43 44 44 44 44 44 44 44 44 43 43 43 42 42 42 42 42 42 42 42 41 41 41 41 41
Wind_Direction
251 252 254 257 260 262 264 266 267 269 271 272 273 274 274 275 276 277 277 276 276 276 276 277 278 279 280 280 278 277 277 279 280 281 281 280 280 279 278 278 277 277 277
252 252 255 258 260 263 266 266 268 270 271 271 272 272 273 274 275 276 276 275 275 276 277 278 278 278 279 279 279 278 278 279 281 281 281 280 279 279 278 277 277 277 277
254 254 255 258 259 261 264 266 268 270 271 271 271 271 272 274 275 275 275 274 275 276 277 277 278 279 279 279 279 278 278 280 281 281 280 279 279 279 278 277 277 276 276
253 255 256 258 259 261 264 266 267 269 270 270 271 272 272 274 274 274 274 274 275 276 276 277 278 278 279 280 280 279 279 281 281 281 280 279 279 278 277 277 277 277 277
255 255 256 258 259 261 264 266 266 268 270 271 271 272 272 273 273 273 273 274 275 275 276 276 277 278 279 280 281 281 280 281 282 281 280 280 279 278 276 276 276 276 275
256 257 257 259 260 261 263 265 266 268 270 272 272 272 272 272 273 273 273 274 274 275 276 276 276 278 279 280 281 281 281 281 281 281 280 279 279 277 276 275 275 275 275
255 258 260 261 261 261 263 265 267 269 270 271 272 271 271 271 272 272 272 272 273 274 276 276 277 277 278 280 281 282 282 283 282 281 280 279 278 277 275 274 274 274 274
255 257 260 262 263 263 265 265 267 270 271 271 272 272 272 272 273 273 273 272 273 274 276 277 277 277 279 280 281 282 283 283 282 281 280 279 278 276 275 273 273 274 273
257 260 261 261 263 265 265 266 268 270 272 272 272 272 272 272 273 273 274 274 274 275 276 277 278 278 279 280 281 282 282 283 282 281 281 280 279 277 275 274 274 273 274
259 260 261 261 263 265 265 266 268 270 272 273 273 273 273 273 273 273 273 274 274 274 275 277 278 279 279 280 281 281 282 282 282 281 281 281 280 278 276 275 274 274 273
260 261 262 263 264 266 267 268 269 271 272 272 274 274 274 274 274 274 274 274 275 275 275 276 278 279 279 279 281 281 282 282 282 281 281 280 280 279 277 275 275 274 274
261 262 263 264 265 267 269 270 271 271 272 272 274 275 276 274 275 275 275 275 275 275 276 277 278 278 278 279 280 281 281 281 281 281 281 281 280 279 278 276 275 275 274
262 263 264 265 267 269 271 271 272 272 272 272 273 275 276 276 275 276 276 275 275 276 276 277 278 278 279 278 279 280 280 280 280 280 280 280 280 279 278 277 277 276 276
264 264 265 266 268 270 272 272 272 272 273 273 273 275 276 276 276 276 277 276 276 276 276 277 278 279 279 279 279 279 279 280 280 280 279 279 279 278 278 278 277 276 276
265 266 266 267 269 272 273 273 273 273 274 274 274 274 275 276 276 277 277 277 277 277 276 277 278 279 279 279 279 279 279 280 281 280 280 279 279 279 278 278 277 277 276
267 267 268 269 270 273 274 274 275 275 275 275 275 275 275 276 276 276 276 277 277 277 277 279 279 278 278 278 278 278 278 279 280 280 280 279 279 279 279 278 277 276 276
270 270 270 270 272 273 274 275 276 276 276 275 276 276 276 277 277 277 276 277 276 277 277 278 278 278 277 278 278 278 278 279 279 279 279 279 279 279 279 278 277 277 276
273 273 273 274 274 274 275 276 277 278 277 276 276 277 277 277 277 278 277 277 277 277 278 279 279 279 279 279 279 279 279 279 279 279 279 279 279 278 278 277 277 277 277
274 274 274 275 275 275 276 277 278 278 277 277 277 277 277 277 278 278 278 278 278 278 278 279 279 279 280 280 280 280 280 279 279 280 280 279 278 277 277 277 278 277 277
275 275 275 275 276 276 277 278 277 277 277 277 278 278 278 278 278 279 278 278 278 278 278 278 279 280 280 281 280 280 280 280 280 280 280 279 279 278 278 278 278 278 277
275 275 275 275 276 277 277 277 277 278 278 278 278 279 279 279 279 279 279 279 279 278 278 279 279 280 281 280 280 280 280 280 280 279 279 279 279 280 280 280 279 279 278
275 275 274 275 276 277 278 278 278 279 280 280 279 280 280 280 280 280 280 279 279 279 279 279 279 280 280 280 281 281 281 281 280 279 279 279 279 280 281 281 281 279 278
275 274 274 275 277 278 279 279 279 279 281 282 282 281 281 281 280 279 279 279 279 280 280 280 280 281 281 281 281 281 281 281 280 279 278 279 279 280 281 281 280 280 279
275 275 275 275 277 278 279 279 280 281 282 283 284 283 282 281 280 280 280 280 280 279 279 279 280 282 282 283 282 282 281 280 279 279 279 278 279 280 281 281 281 281 280
276 276 276 276 277 277 278 279 280 281 283 283 284 284 283 282 281 281 281 281 280 280 280 280 281 282 283 283 283 282 281 280 279 280 280 280 280 281 282 282 282 281 280
276 277 277 277 277 277 277 279 280 281 282 283 283 284 283 282 282 282 282 282 281 280 281 281 282 282 283 283 283 282 282 281 280 280 281 282 282 282 282 282 282 282 281
Height
5814 5815 5817 5818 5819 5819 5819 5820 5820 5820 5819 5819 5819 5818 5817 5817 5816 5815 5814 5813 5812 5811 5810 5809 5808 5807 5806 5805 5804 5803 5803 5802 5801 5800 5799 5797 5796 5795 5795 5794 5793 5793 5792
5807 5808 5810 5811 5812 5812 5813 5813 5813 5813 5813 5812 5812 5811 5811 5810 5809 5808 5807 5807 5806 5805 5804 5803 5802 5801 5799 5798 5797 5796 5795 5794 5793 5792 5791 5789 5788 5787 5787 5786 5785 5785 5784
5799 5801 5802 5803 5804 5805 5805 5805 5805 5805 5805 5805 5805 5804 5803 5803 5802 5801 5800 5800 5799 5798 5797 5795 5794 5793 5792 5791 5789 5788 5787 5786 5785 5784 5782 5781 5780 5779 5778 5777 5777 5776 5776
5790 5792 5793 5795 5796 5796 5797 5797 5797 5797 5797 5797 5797 5796 5796 5795 5794 5793 5792 5792 5791 5790 5789 5787 5786 5785 5784 5783 5781 5780 5779 5777 5776 5774 5773 5772 5770 5769 5769 5769 5768 5767 5767
5781 5783 5784 5786 5787 5788 5788 5789 5788 5789 5789 5788 5788 5788 5787 5786 5785 5785 5784 5783 5782 5781 5780 5779 5778 5776 5775 5774 5772 5771 5769 5768 5766 5765 5763 5762 5761 5760 5759 5759 5759 5758 5758
5772 5773 5775 5776 5778 5779 5779 5779 5780 5780 5780 5779 5779 5779 5778 5777 5776 5776 5775 5774 5773 5772 5771 5770 5769 5767 5766 5764 5763 5761 5760 5758 5757 5755 5753 5752 5751 5750 5750 5749 5749 5748 5748
5763 5764 5766 5767 5768 5769 5770 5770 5770 5770 5770 5770 5770 5769 5769 5768 5767 5766 5765 5765 5764 5763 5761 5760 5759 5757 5756 5755 5753 5752 5750 5748 5746 5745 5743 5742 5740 5740 5739 5739 5738 5737 5738
5754 5755 5757 5758 5759 5759 5760 5761 5761 5760 5760 5760 5760 5760 5759 5759 5758 5757 5756 5755 5754 5753 5752 5751 5749 5748 5746 5745 5743 5741 5739 5738 5736 5734 5732 5731 5730 5729 5728 5728 5727 5726 5726
5744 5746 5747 5748 5749 5750 5750 5751 5751 5751 5751 5750 5750 5749 5749 5749 5749 5748 5746 5745 5744 5743 5742 5740 5739 5737 5736 5734 5732 5731 5729 5727 5725 5723 5722 5720 5719 5718 5717 5716 5716 5715 5715
5736 5737 5738 5738 5739 5740 5740 5741 5741 5741 5741 5741 5740 5739 5739 5739 5738 5739 5738 5736 5734 5733 5731 5730 5728 5727 5725 5723 5722 5720 5718 5716 5714 5713 5711 5710 5708 5707 5706 5705 5705 5704 5703
5727 5728 5728 5729 5730 5730 5730 5730 5730 5730 5730 5730 5730 5729 5728 5728 5727 5727 5727 5726 5724 5722 5721 5719 5717 5716 5714 5712 5710 5709 5707 5705 5703 5702 5700 5698 5697 5696 5695 5694 5693 5692 5691
5718 5718 5719 5719 5720 5720 5720 5720 5719 5719 5719 5719 5719 5718 5717 5717 5716 5715 5714 5714 5713 5711 5709 5708 5706 5704 5702 5700 5699 5697 5695 5693 5691 5690 5688 5687 5685 5684 5683 5682 5680 5680 5679
5708 5709 5709 5710 5710 5710 5710 5710 5709 5709 5708 5708 5708 5707 5706 5705 5704 5703 5702 5702 5701 5700 5698 5696 5694 5692 5690 5688 5686 5684 5683 5681 5679 5677 5676 5674 5672 5671 5670 5669 5668 5667 5666
5699 5699 5699 5700 5700 5700 5699 5699 5699 5698 5698 5697 5696 5696 5695 5693 5692 5691 5690 5689 5688 5688 5686 5684 5682 5679 5677 5675 5674 5672 5670 5668 5666 5664 5663 5661 5659 5658 5656 5655 5654 5653 5653
5689 5689 5689 5689 5689 5689 5689 5688 5688 5687 5686 5685 5684 5684 5682 5681 5679 5678 5677 5675 5675 5674 5674 5672 5669 5666 5664 5662 5660 5658 5656 5655 5653 5651 5649 5648 5646 5644 5643 5641 5640 5639 5638
5679 5679 5679 5679 5678 5678 5678 5677 5676 5675 5674 5673 5672 5671 5670 5668 5667 5665 5663 5662 5660 5659 5659 5658 5655 5653 5650 5648 5646 5644 5642 5641 5639 5637 5635 5634 5632 5630 5628 5627 5625 5624 5623
5669 5669 5668 5668 5667 5667 5666 5665 5664 5663 5662 5661 5659 5658 5657 5655 5654 5652 5650 5648 5646 5644 5643 5643 5640 5638 5636 5634 5632 5629 5628 5626 5624 5622 5621 5619 5617 5615 5613 5611 5610 5609 5608
5659 5658 5657 5657 5656 5655 5654 5653 5652 5651 5649 5648 5647 5645 5644 5642 5640 5638 5636 5634 5632 5630 5629 5628 5626 5623 5621 5619 5617 5615 5613 5611 5609 5607 5605 5603 5601 5600 5598 5596 5595 5593 5592
5648 5647 5646 5646 5645 5644 5642 5641 5640 5638 5637 5635 5634 5632 5630 5628 5627 5624 5622 5620 5618 5616 5615 5613 5611 5609 5607 5605 5603 5601 5599 5597 5594 5592 5590 5588 5586 5584 5582 5581 5579 5578 5577
5636 5635 5634 5633 5632 5631 5630 5628 5627 5625 5624 5622 5620 5618 5616 5614 5613 5610 5608 5606 5604 5602 5601 5599 5597 5595 5593 5590 5588 5587 5585 5582 5580 5577 5575 5573 5571 5569 5567 5566 5564 5563 5561
5624 5623 5622 5621 5620 5618 5617 5615 5614 5612 5610 5609 5607 5604 5602 5600 5598 5596 5594 5592 5590 5588 5586 5585 5583 5581 5579 5576 5574 5572 5570 5568 5565 5563 5561 5558 5556 5554 5552 5550 5549 5547 5545
5612 5611 5609 5608 5607 5605 5603 5602 5600 5599 5597 5595 5593 5591 5588 5586 5584 5582 5580 5578 5575 5574 5572 5571 5569 5567 5565 5563 5560 5558 5556 5554 5552 5550 5547 5544 5542 5540 5538 5536 5533 5531 5530
5599 5598 5597 5595 5594 5592 5590 5588 5587 5585 5584 5582 5579 5577 5575 5573 5570 5568 5566 5564 5562 5560 5558 5556 5555 5553 5551 5549 5547 5544 5541 5539 5537 5535 5533 5531 5528 5526 5523 5521 5519 5517 5515
5587 5585 5584 5583 5581 5580 5577 5576 5574 5572 5571 5568 5566 5563 5561 5559 5557 5555 5553 5551 5549 5547 5545 5543 5541 5539 5537 5534 5532 5530 5528 5526 5524 5520 5518 5517 5515 5513 5510 5508 5505 5503 5501
5574 5573 5571 5570 5569 5567 5565 5563 5561 5560 5558 5556 5553 5551 5548 5546 5544 5542 5540 5538 5536 5534 5531 5529 5527 5525 5523 5520 5518 5516 5514 5512 5511 5508 5505 5504 5502 5500 5498 5495 5492 5490 5488
5562 5560 5559 5558 5556 5555 5553 5551 5549 5547 5546 5544 5542 5539 5536 5534 5531 5529 5527 5525 5523 5521 5518 5516 5514 5512 5509 5507 5505 5503 5501 5499 5497 5496 5493 5491 5489 5487 5486 5484 5480 5478 5476